Location: Eexterzandvoort
(53.0303°N, 6.7884°E)
Time: 05:02:19
(UTC+00:00)

Cosmos 1766 - Pass Details

Date: 19 May 2025
Orbit: 443 x 457 km, 82.5° (Epoch: 14 June)

Event Time Altitude Azimuth Distance (km) Brightness Sun altitude
Rises 22:59:22 0° 342° (NNW) 2,466 8.3 -16.7°
Reaches altitude 10° 23:01:34 10° 332° (NNW) 1,585 6.8 -16.7°
Maximum altitude 23:04:41 33° 267° (W) 779 4.1 -16.8°
Enters shadow 23:05:46 26° 230° (SW) 910 4.1 -16.8°
